Location: Exeidioux
(45.6312°N, 1.6819°E)
Time: 14:33:14
(UTC+00:00)

CZ-2C R/B - Pass Details

Date: 03 March 2021
Orbit: 784 x 871 km, 98.2° (Epoch: 11 April)

Event Time Altitude Azimuth Distance (km) Brightness Sun altitude
Rises 19:41:22 0° 8° (N) 3,434 5.9 -21.4°
Reaches altitude 10° 19:43:50 10° 3° (N) 2,482 5.2 -21.8°
Maximum altitude 19:49:06 48° 291° (WNW) 1,076 3.6 -22.7°
Drops below altitude 10° 19:54:13 10° 218° (SW) 2,410 5.3 -23.5°
Sets 19:56:36 0° 213° (SSW) 3,325 6.0 -23.9°
